Benton Harbor, MI

2:20 AM EDT on May 27, 2017 (GMT -0400)
Southwest Michigan Regional

Weather History for KBEH - December, 2011

Change the Weather History Date:

Wednesday, December 28, 2011

  Actual Average Record
Temperature  
Mean Temperature 30 °F -  
Max Temperature 32 °F 34 °F 65 °F (1984)
Min Temperature 27 °F 19 °F 0 °F (2000)
Degree Days  
Heating Degree Days 36    
Moisture  
Dew Point 20 °F    
Average Humidity 68    
Maximum Humidity 81    
Minimum Humidity 60    
Precipitation  
Precipitation 0.00 in - - ()
Sea Level Pressure  
Sea Level Pressure 30.00 in    
Wind  
Wind Speed 8 mph (WSW)    
Max Wind Speed 13 mph    
Max Gust Speed 23 mph    
Visibility 10 miles    
Events      
Averages and records for this station are not official NWS values.
T = Trace of Precipitation, MM = Missing Value Source: NWS Daily Summary

Daily Weather History Graph

Daily Weather History Graph

Search for Another Location

Airport or City:

Trip Planner

Search our weather history database for the weather conditions in past years. The results will help you decide how hot, cold, wet, or windy it might be!

Date:

Astronomy

Dec. 28, 2011 Rise Set
Actual Time 8:13 AM EST 5:21 PM EST
Civil Twilight 7:41 AM EST 5:52 PM EST
Nautical Twilight 7:06 AM EST 6:28 PM EST
Astronomical Twilight 6:32 AM EST 7:02 PM EST
Moon 10:34 AM EST (12/28) 10:01 PM EST (12/28)
Length of Visible Light 10h 11m
Length of Day
9h 07m
Waxing Crescent, 18% of the Moon is Illuminated
Dec 28
Waxing Crescent
Jan 1
First Quarter
Jan 9
Full
Jan 16
Last Quarter
Jan 23
New

Hourly Weather History & Observations

Time (EST) Temp. Windchill Dew Point Humidity Pressure Visibility Wind Dir Wind Speed Gust Speed Precip Events Conditions
12:53 AM 30.0 °F 20.5 °F 21.0 °F 69% 29.93 in 10.0 mi NW 11.5 mph 23.0 mph N/A   Overcast
1:53 AM 28.9 °F 18.6 °F 19.9 °F 69% 29.96 in 10.0 mi NW 12.7 mph 23.0 mph N/A   Overcast
2:53 AM 28.9 °F 21.9 °F 19.9 °F 69% 29.99 in 10.0 mi Variable 6.9 mph 20.7 mph N/A   Overcast
3:53 AM 28.0 °F 18.1 °F 19.9 °F 72% 29.99 in 10.0 mi NW 11.5 mph 19.6 mph N/A   Overcast
4:53 AM 27.0 °F 18.0 °F 18.0 °F 69% 29.99 in 10.0 mi NW 9.2 mph 23.0 mph N/A   Overcast
5:53 AM 28.0 °F 22.8 °F 19.0 °F 69% 30.00 in 10.0 mi Variable 4.6 mph - N/A   Overcast
6:53 AM 28.0 °F 21.7 °F 18.0 °F 66% 30.01 in 10.0 mi NW 5.8 mph - N/A   Overcast
7:53 AM 28.0 °F 22.8 °F 18.0 °F 66% 30.03 in 10.0 mi NW 4.6 mph - N/A   Overcast
8:53 AM 28.0 °F 19.3 °F 19.0 °F 69% 30.04 in 10.0 mi NW 9.2 mph - N/A   Overcast
9:53 AM 28.9 °F 23.9 °F 18.0 °F 64% 30.05 in 10.0 mi Variable 4.6 mph - N/A   Mostly Cloudy
10:13 AM 30.2 °F 26.7 °F 17.6 °F 60% 30.03 in 10.0 mi NW 3.5 mph - N/A   Overcast
10:53 AM 30.0 °F 25.2 °F 19.0 °F 64% 30.07 in 10.0 mi Variable 4.6 mph - N/A   Overcast
11:06 AM 30.2 °F 23.4 °F 19.4 °F 64% 30.05 in 10.0 mi West 6.9 mph - N/A   Overcast
11:53 AM 32.0 °F 22.5 °F 21.0 °F 64% 30.06 in 10.0 mi West 12.7 mph 18.4 mph N/A   Overcast
12:53 PM 30.9 °F 23.5 °F 19.0 °F 61% 30.04 in 10.0 mi WSW 8.1 mph - N/A   Mostly Cloudy
1:02 PM 30.2 °F 21.9 °F 19.4 °F 64% 30.02 in 10.0 mi West 9.2 mph - N/A   Mostly Cloudy
1:27 PM 30.2 °F 21.9 °F 19.4 °F 64% 30.02 in 10.0 mi West 9.2 mph - N/A   Overcast
1:53 PM 30.9 °F 24.3 °F 19.0 °F 61% 30.04 in 10.0 mi West 6.9 mph - N/A   Mostly Cloudy
2:32 PM 30.2 °F 23.4 °F 19.4 °F 64% 30.01 in 10.0 mi WNW 6.9 mph - N/A   Overcast
2:53 PM 30.0 °F 23.2 °F 19.9 °F 66% 30.03 in 10.0 mi WSW 6.9 mph - N/A   Overcast
3:33 PM 30.2 °F 25.4 °F 19.4 °F 64% 30.00 in 10.0 mi WSW 4.6 mph - N/A   Overcast
3:42 PM 30.2 °F 24.3 °F 19.4 °F 64% 30.00 in 10.0 mi West 5.8 mph - N/A   Overcast
3:53 PM 30.0 °F 23.2 °F 19.9 °F 66% 30.03 in 10.0 mi West 6.9 mph - N/A   Overcast
4:22 PM 30.2 °F 25.4 °F 19.4 °F 64% 30.00 in 10.0 mi SW 4.6 mph - N/A   Scattered Clouds
4:53 PM 30.0 °F - 19.9 °F 66% 30.02 in 10.0 mi Calm Calm - N/A   Scattered Clouds
5:09 PM 30.2 °F 26.7 °F 21.2 °F 69% 29.99 in 10.0 mi South 3.5 mph - N/A   Mostly Cloudy
5:17 PM 30.2 °F - 21.2 °F 69% 29.99 in 10.0 mi Calm Calm - N/A   Scattered Clouds
5:25 PM 30.2 °F 26.7 °F 21.2 °F 69% 29.98 in 10.0 mi SSW 3.5 mph - N/A   Mostly Cloudy
5:32 PM 28.4 °F 24.6 °F 21.2 °F 74% 29.98 in 10.0 mi South 3.5 mph - N/A   Scattered Clouds
5:53 PM 28.9 °F - 21.0 °F 72% 30.00 in 10.0 mi Calm Calm - N/A   Mostly Cloudy
6:53 PM 27.0 °F 23.0 °F 21.0 °F 78% 30.00 in 10.0 mi SE 3.5 mph - N/A   Scattered Clouds
7:53 PM 27.0 °F 23.0 °F 21.0 °F 78% 30.01 in 10.0 mi South 3.5 mph - N/A   Partly Cloudy
8:53 PM 27.0 °F 19.5 °F 21.0 °F 78% 29.98 in 10.0 mi SSE 6.9 mph - N/A   Overcast
9:53 PM 28.0 °F 20.0 °F 21.0 °F 75% 29.96 in 10.0 mi South 8.1 mph - N/A   Overcast
10:53 PM 28.0 °F 18.6 °F 21.9 °F 78% 29.94 in 10.0 mi South 10.4 mph - N/A   Mostly Cloudy
11:53 PM 27.0 °F 20.5 °F 21.9 °F 81% 29.92 in 10.0 mi SE 5.8 mph - N/A   Partly Cloudy